START_TIME,STEP,MOV.,EG07,t_acc.,EG08,t_acc.,EG09,t_acc.,EB05,t_acc.,EBP05,t_acc.
1979-03-04 15:13:24.340 ,0,0,0.,1.2,0.,1.2,0.,1.2,,0.0,,0.0
1979-03-04 15:13:25.540 ,0,0,0.,1.2,0.,1.2,0.,1.2,,0.0,,0.0
1979-03-04 15:13:26.740 ,0,0,0.,1.2,0.,1.2,0.,1.2,,0.0,,0.0
1979-03-04 15:13:27.940 ,0,0,0.,1.2,0.,1.2,0.,1.2,,0.0,,0.0
1979-03-04 15:13:29.140 ,0,0,0.,1.2,0.,1.2,0.,1.2,,0.0,,0.0
1979-03-04 15:13:30.340 ,0,0,0.,1.2,0.,1.2,0.,1.2,,0.0,,0.0
1979-03-04 15:13:31.540 ,0,0,0.,1.2,0.,1.2,0.,1.2,,0.0,,0.0
1979-03-04 15:13:32.740 ,0,0,0.,1.2,0.,1.2,0.,1.2,,0.0,,0.0
1979-03-04 15:13:33.940 ,0,0,0.,1.2,0.,1.2,0.,1.2,,0.0,,0.0
1979-03-04 15:13:35.140 ,0,0,0.,1.2,0.,1.2,0.,1.2,,0.0,,0.0
1979-03-04 15:13:36.340 ,0,0,0.,1.2,0.,1.2,0.,1.2,,0.0,,0.0
1979-03-04 15:13:37.540 ,0,0,0.,1.2,0.,1.2,0.,1.2,,0.0,,0.0
1979-03-04 15:13:38.740 ,0,0,0.,1.2,0.,1.2,0.,1.2,,0.0,,0.0
1979-03-04 15:13:39.940 ,0,0,0.,1.2,0.,1.2,0.,1.2,,0.0,,0.0
1979-03-04 15:13:41.140 ,0,0,0.,1.2,0.,1.2,0.,1.2,,0.0,,0.0
1979-03-04 15:13:42.340 ,0,0,0.,1.2,0.,1.2,0.,1.2,,0.0,,0.0
1979-03-04 15:13:43.540 ,0,0,0.,1.2,0.,1.2,0.,1.2,,0.0,,0.0
1979-03-04 15:13:44.740 ,0,0,0.,1.2,0.,1.2,0.,1.2,,0.0,,0.0
1979-03-04 15:13:45.940 ,0,0,0.,1.2,0.,1.2,0.,1.2,,0.0,,0.0
1979-03-04 15:13:47.140 ,0,0,0.,1.2,0.,1.2,0.,1.2,,0.0,,0.0
1979-03-04 15:13:48.340 ,5,0,0.,1.2,0.,1.2,0.,1.2,,0.0,,0.0
1979-03-04 15:13:49.540 ,5,0,0.,1.2,0.,1.2,0.,1.2,,0.0,,0.0
1979-03-04 15:13:50.740 ,5,0,0.,1.2,0.,1.2,0.,1.2,,0.0,,0.0
1979-03-04 15:13:51.940 ,5,0,0.,1.2,0.,1.2,0.,1.2,,0.0,,0.0
1979-03-04 15:13:53.140 ,5,0,0.,1.2,0.,1.2,0.,1.2,,0.0,,0.0
1979-03-04 15:13:54.340 ,5,0,0.,1.2,0.,1.2,0.,1.2,,0.0,,0.0
1979-03-04 15:13:55.540 ,5,0,0.,1.2,0.,1.2,0.,1.2,,0.0,,0.0
1979-03-04 15:13:56.740 ,5,0,0.,1.2,0.,1.2,0.,1.2,,0.0,,0.0
1979-03-04 15:13:57.940 ,5,0,0.,1.2,0.,1.2,0.,1.2,,0.0,,0.0
1979-03-04 15:13:59.140 ,5,0,0.,1.2,0.,1.2,0.,1.2,,0.0,,0.0
1979-03-04 15:14:00.340 ,5,0,0.,1.2,0.,1.2,0.,1.2,,0.0,,0.0
1979-03-04 15:14:01.540 ,5,0,0.,1.2,0.,1.2,0.,1.2,,0.0,,0.0
1979-03-04 15:14:02.740 ,5,0,0.,1.2,0.,1.2,0.,1.2,,0.0,,0.0
1979-03-04 15:14:03.940 ,5,0,0.,1.2,0.,1.2,0.,1.2,,0.0,,0.0
1979-03-04 15:14:05.140 ,5,0,0.,1.2,0.,1.2,0.,1.2,,0.0,,0.0
1979-03-04 15:14:06.340 ,5,0,0.,1.2,0.,1.2,0.,1.2,,0.0,,0.0
1979-03-04 15:14:07.540 ,5,0,0.,1.2,0.,1.2,0.,1.2,,0.0,,0.0
1979-03-04 15:14:08.740 ,5,0,0.,1.2,0.,1.2,0.,1.2,,0.0,,0.0
1979-03-04 15:14:09.940 ,5,0,0.,1.2,0.,1.2,0.,1.2,,0.0,,0.0
1979-03-04 15:14:11.140 ,5,0,0.,1.2,0.,1.2,0.,1.2,,0.0,,0.0
1979-03-04 15:14:12.340 ,6,0,0.,1.2,0.,1.2,0.,1.2,,0.0,,0.0
1979-03-04 15:14:13.540 ,6,0,0.,1.2,0.,1.2,0.,1.2,,0.0,,0.0
1979-03-04 15:14:14.740 ,6,0,0.,1.2,0.,1.2,0.,1.2,,0.0,,0.0
1979-03-04 15:14:15.940 ,6,0,0.,1.2,0.,1.2,0.,1.2,,0.0,,0.0
1979-03-04 15:14:17.140 ,6,0,0.,1.2,0.,1.2,0.,1.2,,0.0,,0.0
1979-03-04 15:14:18.340 ,6,0,0.,1.2,0.,1.2,0.,1.2,,0.0,,0.0
1979-03-04 15:14:19.540 ,6,0,0.,1.2,0.,1.2,0.,1.2,,0.0,,0.0
1979-03-04 15:14:20.740 ,6,0,0.,1.2,0.,1.2,0.,1.2,,0.0,,0.0
1979-03-04 15:14:21.940 ,6,0,0.,1.2,0.,1.2,0.,1.2,,0.0,,0.0
1979-03-04 15:14:23.140 ,6,0,0.,1.2,0.,1.2,0.,1.2,,0.0,,0.0
1979-03-04 15:14:24.340 ,6,0,0.,1.2,0.,1.2,0.,1.2,,0.0,,0.0
1979-03-04 15:14:25.540 ,6,0,0.,1.2,0.,1.2,0.,1.2,,0.0,,0.0
1979-03-04 15:14:26.740 ,6,0,0.,1.2,0.,1.2,0.,1.2,,0.0,,0.0
1979-03-04 15:14:27.940 ,6,0,0.,1.2,0.,1.2,0.,1.2,,0.0,,0.0
1979-03-04 15:14:29.140 ,6,0,0.,1.2,0.,1.2,0.,1.2,,0.0,,0.0
1979-03-04 15:14:30.340 ,6,0,0.,1.2,0.,1.2,0.,1.2,,0.0,,0.0
1979-03-04 15:14:31.540 ,6,0,0.,1.2,0.,1.2,0.,1.2,,0.0,,0.0
1979-03-04 15:14:32.740 ,6,0,,0,,0,,0,,0,,0
1979-03-04 15:14:33.940 ,6,0,0.,1.2,0.,1.2,0.,1.2,,0.0,,0.0
1979-03-04 15:14:35.140 ,6,0,0.,1.2,0.,1.2,0.,1.2,,0.0,,0.0
1979-03-04 15:14:36.340 ,7,0,0.,1.2,0.,1.2,0.,1.2,,0.0,,0.0
1979-03-04 15:14:37.540 ,7,0,0.,1.2,0.,1.2,0.,1.2,,0.0,,0.0
1979-03-04 15:14:38.740 ,7,0,0.,1.2,0.,1.2,0.,1.2,,0.0,,0.0
1979-03-04 15:14:39.940 ,7,0,0.,1.2,0.,1.2,0.,1.2,,0.0,,0.0
1979-03-04 15:14:41.140 ,7,0,0.,1.2,0.,1.2,0.,1.2,,0.0,,0.0
1979-03-04 15:14:42.340 ,7,0,0.,1.2,0.,1.2,0.,1.2,,0.0,,0.0
1979-03-04 15:14:43.540 ,7,0,0.,1.2,0.,1.2,0.,1.2,,0.0,,0.0
1979-03-04 15:14:44.740 ,7,0,0.,1.2,0.,1.2,0.,1.2,,0.0,,0.0
1979-03-04 15:14:45.940 ,7,0,0.,1.2,0.,1.2,0.,1.2,,0.0,,0.0
1979-03-04 15:14:47.140 ,7,0,0.,1.2,0.,1.2,0.,1.2,,0.0,,0.0
1979-03-04 15:14:48.340 ,7,0,0.,1.2,0.,1.2,0.,1.2,,0.0,,0.0
1979-03-04 15:14:49.540 ,7,0,0.,1.2,0.,1.2,0.,1.2,,0.0,,0.0
1979-03-04 15:14:50.740 ,7,0,0.,1.2,0.,1.2,0.,1.2,,0.0,,0.0
1979-03-04 15:14:51.940 ,7,0,0.,1.2,0.,1.2,0.,1.2,,0.0,,0.0
1979-03-04 15:14:53.140 ,7,0,0.,1.2,0.,1.2,0.,1.2,,0.0,,0.0
1979-03-04 15:14:54.340 ,7,0,0.,1.2,0.,1.2,0.,1.2,,0.0,,0.0
1979-03-04 15:14:55.540 ,7,0,0.,1.2,0.,1.2,0.,1.2,,0.0,,0.0
1979-03-04 15:14:56.740 ,7,0,0.,1.2,0.,1.2,0.,1.2,,0.0,,0.0
1979-03-04 15:14:57.940 ,7,0,0.,1.2,0.,1.2,0.,1.2,,0.0,,0.0
1979-03-04 15:14:59.140 ,7,0,0.,1.2,0.,1.2,0.,1.2,,0.0,,0.0
1979-03-04 15:15:00.340 ,7,0,0.,1.2,0.,1.2,0.,1.2,,0.0,,0.0
1979-03-04 15:15:01.540 ,7,0,0.,1.2,0.,1.2,0.,1.2,,0.0,,0.0
1979-03-04 15:15:02.740 ,7,0,0.,1.2,0.,1.2,0.,1.2,,0.0,,0.0
1979-03-04 15:15:03.940 ,7,0,0.,1.2,0.,1.2,0.,1.2,,0.0,,0.0
1979-03-04 15:15:05.140 ,7,0,0.,1.2,0.,1.2,0.,1.2,,0.0,,0.0
1979-03-04 15:15:06.340 ,7,0,0.,1.2,0.,1.2,0.,1.2,,0.0,,0.0
1979-03-04 15:15:07.540 ,7,0,0.,1.2,0.,1.2,0.,1.2,,0.0,,0.0
1979-03-04 15:15:08.740 ,7,0,0.,1.2,0.,1.2,0.,1.2,,0.0,,0.0
1979-03-04 15:15:09.940 ,7,0,0.,1.2,0.,1.2,0.,1.2,,0.0,,0.0
1979-03-04 15:15:11.140 ,7,0,0.,1.2,0.,1.2,0.,1.2,,0.0,,0.0
1979-03-04 15:15:12.340 ,7,0,0.,1.2,0.,1.2,0.,1.2,,0.0,,0.0
1979-03-04 15:15:13.540 ,7,0,0.,1.2,0.,1.2,0.,1.2,,0.0,,0.0
1979-03-04 15:15:14.740 ,7,0,0.,1.2,0.,1.2,0.,1.2,,0.0,,0.0
1979-03-04 15:15:15.940 ,7,0,0.,1.2,0.,1.2,0.,1.2,,0.0,,0.0
1979-03-04 15:15:17.140 ,7,0,0.,1.2,0.,1.2,0.,1.2,,0.0,,0.0
1979-03-04 15:15:18.340 ,7,0,0.,1.2,0.,1.2,0.,1.2,,0.0,,0.0
1979-03-04 15:15:19.540 ,7,0,0.,1.2,0.,1.2,0.,1.2,,0.0,,0.0
1979-03-04 15:15:20.740 ,7,0,0.,1.2,0.,1.2,0.,1.2,,0.0,,0.0
1979-03-04 15:15:21.940 ,7,0,0.,1.2,0.,1.2,0.,1.2,,0.0,,0.0
1979-03-04 15:15:23.140 ,7,0,0.,1.2,0.,1.2,0.,1.2,,0.0,,0.0
1979-03-04 15:15:24.340 ,6,0,0.,1.2,0.,1.2,0.,1.2,,0.0,,0.0
1979-03-04 15:15:25.540 ,6,0,0.,1.2,0.,1.2,0.,1.2,,0.0,,0.0
1979-03-04 15:15:26.740 ,6,0,0.,1.2,0.,1.2,0.,1.2,,0.0,,0.0
1979-03-04 15:15:27.940 ,6,0,0.,1.2,0.,1.2,0.,1.2,,0.0,,0.0
1979-03-04 15:15:29.140 ,6,0,0.,1.2,0.,1.2,0.,1.2,,0.0,,0.0
1979-03-04 15:15:30.340 ,6,0,0.,1.2,0.,1.2,0.,1.2,,0.0,,0.0
1979-03-04 15:15:31.540 ,6,0,0.,1.2,0.,1.2,0.,1.2,,0.0,,0.0
1979-03-04 15:15:32.740 ,6,0,0.,1.2,0.,1.2,0.,1.2,,0.0,,0.0
1979-03-04 15:15:33.940 ,6,0,0.,1.2,0.,1.2,0.,1.2,,0.0,,0.0
1979-03-04 15:15:35.140 ,6,0,0.,1.2,0.,1.2,0.,1.2,,0.0,,0.0
1979-03-04 15:15:36.340 ,6,0,0.,1.2,0.,1.2,0.,1.2,,0.0,,0.0
1979-03-04 15:15:37.540 ,6,0,0.,1.2,0.,1.2,0.,1.2,,0.0,,0.0
1979-03-04 15:15:38.740 ,6,0,0.,1.2,0.,1.2,0.,1.2,,0.0,,0.0
1979-03-04 15:15:39.940 ,6,0,0.,1.2,0.,1.2,0.,1.2,,0.0,,0.0
1979-03-04 15:15:41.140 ,6,0,0.,1.2,0.,1.2,0.,1.2,,0.0,,0.0
1979-03-04 15:15:42.340 ,6,0,0.,1.2,0.,1.2,0.,1.2,,0.0,,0.0
1979-03-04 15:15:43.540 ,6,0,0.,1.2,0.,1.2,0.,1.2,,0.0,,0.0
1979-03-04 15:15:44.740 ,6,0,0.,1.2,0.,1.2,0.,1.2,,0.0,,0.0
1979-03-04 15:15:45.940 ,6,0,0.,1.2,0.,1.2,0.,1.2,,0.0,,0.0
1979-03-04 15:15:47.140 ,6,0,0.,1.2,0.,1.2,0.,1.2,,0.0,,0.0
1979-03-04 15:15:48.340 ,5,0,0.,1.2,0.,1.2,0.,1.2,,0.0,,0.0
1979-03-04 15:15:49.540 ,5,0,0.,1.2,0.,1.2,0.,1.2,,0.0,,0.0
1979-03-04 15:15:50.740 ,5,0,0.,1.2,0.,1.2,0.,1.2,,0.0,,0.0
1979-03-04 15:15:51.940 ,5,0,0.,1.2,0.,1.2,0.,1.2,,0.0,,0.0
1979-03-04 15:15:53.140 ,5,0,0.,1.2,0.,1.2,0.,1.2,,0.0,,0.0
1979-03-04 15:15:54.340 ,5,0,0.,1.2,0.,1.2,0.,1.2,,0.0,,0.0
1979-03-04 15:15:55.540 ,5,0,0.,1.2,0.,1.2,0.,1.2,,0.0,,0.0
1979-03-04 15:15:56.740 ,5,0,0.,1.2,0.,1.2,0.,1.2,,0.0,,0.0
1979-03-04 15:15:57.940 ,5,0,0.,1.2,0.,1.2,0.,1.2,,0.0,,0.0
1979-03-04 15:15:59.140 ,5,0,0.,1.2,0.,1.2,0.,1.2,,0.0,,0.0
1979-03-04 15:16:00.340 ,5,0,0.,1.2,0.,1.2,0.,1.2,,0.0,,0.0
1979-03-04 15:16:01.540 ,5,0,0.,1.2,0.,1.2,0.,1.2,,0.0,,0.0
1979-03-04 15:16:02.740 ,5,0,0.,1.2,0.,1.2,0.,1.2,,0.0,,0.0
1979-03-04 15:16:03.940 ,5,0,0.,1.2,0.,1.2,0.,1.2,,0.0,,0.0
1979-03-04 15:16:05.140 ,5,0,0.,1.2,0.,1.2,0.,1.2,,0.0,,0.0
1979-03-04 15:16:06.340 ,5,0,0.,1.2,0.,1.2,0.,1.2,,0.0,,0.0
1979-03-04 15:16:07.540 ,5,0,0.,1.2,0.,1.2,0.,1.2,,0.0,,0.0
1979-03-04 15:16:08.740 ,5,0,0.,1.2,0.,1.2,0.,1.2,,0.0,,0.0
1979-03-04 15:16:09.940 ,5,0,0.,1.2,0.,1.2,0.,1.2,,0.0,,0.0
1979-03-04 15:16:11.140 ,5,0,0.,1.2,0.,1.2,0.,1.2,,0.0,,0.0
1979-03-04 15:16:12.340 ,4,0,0.,1.2,0.,1.2,0.,1.2,,0.0,,0.0
1979-03-04 15:16:13.540 ,4,0,0.,1.2,0.,1.2,0.,1.2,,0.0,,0.0
1979-03-04 15:16:14.740 ,4,0,0.,1.2,0.,1.2,0.,1.2,,0.0,,0.0
1979-03-04 15:16:15.940 ,4,0,0.,1.2,0.,1.2,0.,1.2,,0.0,,0.0
1979-03-04 15:16:17.140 ,4,0,0.,1.2,0.,1.2,0.,1.2,,0.0,,0.0
1979-03-04 15:16:18.340 ,4,0,0.,1.2,0.,1.2,0.,1.2,,0.0,,0.0
1979-03-04 15:16:19.540 ,4,0,0.,1.2,0.,1.2,0.,1.2,,0.0,,0.0
1979-03-04 15:16:20.740 ,4,0,0.,1.2,0.,1.2,0.,1.2,,0.0,,0.0
1979-03-04 15:16:21.940 ,4,0,0.,1.2,0.,1.2,0.,1.2,,0.0,,0.0
1979-03-04 15:16:23.140 ,4,0,0.,1.2,0.,1.2,0.,1.2,,0.0,,0.0
1979-03-04 15:16:24.340 ,4,0,0.,1.2,0.,1.2,0.,1.2,,0.0,,0.0
1979-03-04 15:16:25.540 ,4,0,0.,1.2,0.,1.2,0.,1.2,,0.0,,0.0
1979-03-04 15:16:26.740 ,4,0,0.,1.2,0.,1.2,0.,1.2,,0.0,,0.0
1979-03-04 15:16:27.940 ,4,0,0.,1.2,0.,1.2,0.,1.2,,0.0,,0.0
1979-03-04 15:16:29.140 ,4,0,0.,1.2,0.,1.2,0.,1.2,,0.0,,0.0
1979-03-04 15:16:30.340 ,4,0,0.,1.2,0.,1.2,0.,1.2,,0.0,,0.0
1979-03-04 15:16:31.540 ,4,0,0.,1.2,0.,1.2,0.,1.2,,0.0,,0.0
1979-03-04 15:16:32.740 ,4,0,0.,1.2,0.,1.2,0.,1.2,,0.0,,0.0
1979-03-04 15:16:33.940 ,4,0,0.,1.2,0.,1.2,0.,1.2,,0.0,,0.0
1979-03-04 15:16:35.140 ,4,0,0.,1.2,0.,1.2,0.,1.2,,0.0,,0.0
1979-03-04 15:16:36.340 ,3,0,0.,1.2,0.,1.2,0.,1.2,,0.0,,0.0
1979-03-04 15:16:37.540 ,3,0,0.,1.2,0.,1.2,0.,1.2,,0.0,,0.0
1979-03-04 15:16:38.740 ,3,0,0.,1.2,0.,1.2,0.,1.2,,0.0,,0.0
1979-03-04 15:16:39.940 ,3,0,0.,1.2,0.,1.2,0.,1.2,,0.0,,0.0
1979-03-04 15:16:41.140 ,3,0,0.,1.2,0.,1.2,0.,1.2,,0.0,,0.0
1979-03-04 15:16:42.340 ,3,0,0.,1.2,0.,1.2,0.,1.2,,0.0,,0.0
1979-03-04 15:16:43.540 ,3,0,0.,1.2,0.,1.2,0.,1.2,,0.0,,0.0
1979-03-04 15:16:44.740 ,3,0,0.,1.2,0.,1.2,0.,1.2,,0.0,,0.0
1979-03-04 15:16:45.940 ,3,0,0.,1.2,0.,1.2,0.,1.2,,0.0,,0.0
1979-03-04 15:16:47.140 ,3,0,0.,1.2,0.,1.2,0.,1.2,,0.0,,0.0
1979-03-04 15:16:48.340 ,3,0,0.,1.2,0.,1.2,0.,1.2,,0.0,,0.0
1979-03-04 15:16:49.540 ,3,0,0.,1.2,0.,1.2,0.,1.2,,0.0,,0.0
1979-03-04 15:16:50.740 ,3,0,0.,1.2,0.,1.2,0.,1.2,,0.0,,0.0
1979-03-04 15:16:51.940 ,3,0,0.,1.2,0.,1.2,0.,1.2,,0.0,,0.0
1979-03-04 15:16:53.140 ,3,0,0.,1.2,0.,1.2,0.,1.2,,0.0,,0.0
1979-03-04 15:16:54.340 ,3,0,0.,1.2,0.,1.2,0.,1.2,,0.0,,0.0
1979-03-04 15:16:55.540 ,3,0,0.,1.2,0.,1.2,0.,1.2,,0.0,,0.0
1979-03-04 15:16:56.740 ,3,0,0.,1.2,0.,1.2,0.,1.2,,0.0,,0.0
1979-03-04 15:16:57.940 ,3,0,0.,1.2,0.,1.2,0.,1.2,,0.0,,0.0
1979-03-04 15:16:59.140 ,3,0,0.,1.2,0.,1.2,0.,1.2,,0.0,,0.0
1979-03-04 15:17:00.340 ,2,0,0.,1.2,0.,1.2,0.,1.2,,0.0,,0.0
1979-03-04 15:17:01.540 ,2,0,0.,1.2,0.,1.2,0.,1.2,,0.0,,0.0
1979-03-04 15:17:02.740 ,2,0,0.,1.2,0.,1.2,0.,1.2,,0.0,,0.0
1979-03-04 15:17:03.940 ,2,0,0.,1.2,0.,1.2,0.,1.2,,0.0,,0.0
1979-03-04 15:17:05.140 ,2,0,0.,1.2,0.,1.2,0.,1.2,,0.0,,0.0
1979-03-04 15:17:06.340 ,2,0,0.,1.2,0.,1.2,0.,1.2,,0.0,,0.0
1979-03-04 15:17:07.540 ,2,0,0.,1.2,0.,1.2,0.,1.2,,0.0,,0.0
1979-03-04 15:17:08.740 ,2,0,0.,1.2,0.,1.2,0.,1.2,,0.0,,0.0
1979-03-04 15:17:09.940 ,2,0,0.,1.2,0.,1.2,0.,1.2,,0.0,,0.0
1979-03-04 15:17:11.140 ,2,0,0.,1.2,0.,1.2,0.,1.2,,0.0,,0.0
1979-03-04 15:17:12.340 ,2,0,0.,1.2,0.,1.2,0.,1.2,,0.0,,0.0
1979-03-04 15:17:13.540 ,2,0,0.,1.2,0.,1.2,0.,1.2,,0.0,,0.0
1979-03-04 15:17:14.740 ,2,0,0.,1.2,0.,1.2,0.,1.2,,0.0,,0.0
1979-03-04 15:17:15.940 ,2,0,0.,1.2,0.,1.2,0.,1.2,,0.0,,0.0
1979-03-04 15:17:17.140 ,2,0,0.,1.2,0.,1.2,0.,1.2,,0.0,,0.0
1979-03-04 15:17:18.340 ,2,0,0.,1.2,0.,1.2,0.,1.2,,0.0,,0.0
1979-03-04 15:17:19.540 ,2,0,0.,1.2,0.,1.2,0.,1.2,,0.0,,0.0
1979-03-04 15:17:20.740 ,2,0,0.,1.2,0.,1.2,0.,1.2,,0.0,,0.0
1979-03-04 15:17:21.940 ,2,0,0.,1.2,0.,1.2,0.,1.2,,0.0,,0.0
1979-03-04 15:17:23.140 ,2,0,0.,1.2,0.,1.2,0.,1.2,,0.0,,0.0
1979-03-04 15:17:24.340 ,1,0,0.,1.2,0.,1.2,0.,1.2,,0.0,,0.0
1979-03-04 15:17:25.540 ,1,0,0.,1.2,0.,1.2,0.,1.2,,0.0,,0.0
1979-03-04 15:17:26.740 ,1,0,0.,1.2,0.,1.2,0.,1.2,,0.0,,0.0
1979-03-04 15:17:27.940 ,1,0,0.,1.2,0.,1.2,0.,1.2,,0.0,,0.0
1979-03-04 15:17:29.140 ,1,0,0.,1.2,0.,1.2,0.,1.2,,0.0,,0.0
1979-03-04 15:17:30.340 ,1,0,0.,1.2,0.,1.2,0.,1.2,,0.0,,0.0
1979-03-04 15:17:31.540 ,1,0,0.,1.2,0.,1.2,0.,1.2,,0.0,,0.0
1979-03-04 15:17:32.740 ,1,0,0.,1.2,0.,1.2,0.,1.2,,0.0,,0.0
1979-03-04 15:17:33.940 ,1,0,0.,1.2,0.,1.2,0.,1.2,,0.0,,0.0
1979-03-04 15:17:35.140 ,1,0,0.,1.2,0.,1.2,0.,1.2,,0.0,,0.0
1979-03-04 15:17:36.340 ,1,0,0.,1.2,0.,1.2,0.,1.2,,0.0,,0.0
1979-03-04 15:17:37.540 ,1,0,0.,1.2,0.,1.2,0.,1.2,,0.0,,0.0
1979-03-04 15:17:38.740 ,1,0,0.,1.2,0.,1.2,0.,1.2,,0.0,,0.0
1979-03-04 15:17:39.940 ,1,0,0.,1.2,0.,1.2,0.,1.2,,0.0,,0.0
1979-03-04 15:17:41.140 ,1,0,0.,1.2,0.,1.2,0.,1.2,,0.0,,0.0
1979-03-04 15:17:42.340 ,1,0,0.,1.2,0.,1.2,0.,1.2,,0.0,,0.0
1979-03-04 15:17:43.540 ,1,0,0.,1.2,0.,1.2,0.,1.2,,0.0,,0.0
1979-03-04 15:17:44.740 ,1,0,0.,1.2,0.,1.2,0.,1.2,,0.0,,0.0
1979-03-04 15:17:45.940 ,1,0,0.,1.2,0.,1.2,0.,1.2,,0.0,,0.0
1979-03-04 15:17:47.140 ,1,0,0.,1.2,0.,1.2,0.,1.2,,0.0,,0.0
1979-03-04 15:17:48.340 ,0,0,0.,1.2,0.,1.2,0.,1.2,,0.0,,0.0
1979-03-04 15:17:49.540 ,0,0,0.,1.2,0.,1.2,0.,1.2,,0.0,,0.0
1979-03-04 15:17:50.740 ,0,0,0.,1.2,0.,1.2,0.,1.2,,0.0,,0.0
1979-03-04 15:17:51.940 ,0,0,0.,1.2,0.,1.2,0.,1.2,,0.0,,0.0
1979-03-04 15:17:53.140 ,0,0,0.,1.2,0.,1.2,0.,1.2,,0.0,,0.0
1979-03-04 15:17:54.340 ,0,0,0.,1.2,0.,1.2,0.,1.2,,0.0,,0.0
1979-03-04 15:17:55.540 ,0,0,0.,1.2,0.,1.2,0.,1.2,,0.0,,0.0
1979-03-04 15:17:56.740 ,0,0,0.,1.2,0.,1.2,0.,1.2,,0.0,,0.0
1979-03-04 15:17:57.940 ,0,0,0.,1.2,0.,1.2,0.,1.2,,0.0,,0.0
1979-03-04 15:17:59.140 ,0,0,0.,1.2,0.,1.2,0.,1.2,,0.0,,0.0
1979-03-04 15:18:00.340 ,0,0,0.,1.2,0.,1.2,0.,1.2,,0.0,,0.0
1979-03-04 15:18:01.540 ,0,0,0.,1.2,0.,1.2,0.,1.2,,0.0,,0.0
1979-03-04 15:18:02.740 ,0,0,0.,1.2,0.,1.2,0.,1.2,,0.0,,0.0
1979-03-04 15:18:03.940 ,0,0,0.,1.2,0.,1.2,0.,1.2,,0.0,,0.0
1979-03-04 15:18:05.140 ,0,0,0.,1.2,0.,1.2,0.,1.2,,0.0,,0.0
1979-03-04 15:18:06.340 ,0,0,0.,1.2,0.,1.2,0.,1.2,,0.0,,0.0
1979-03-04 15:18:07.540 ,0,0,0.,1.2,0.,1.2,0.,1.2,,0.0,,0.0
1979-03-04 15:18:08.740 ,0,0,0.,1.2,0.,1.2,0.,1.2,,0.0,,0.0
1979-03-04 15:18:09.940 ,0,0,0.,1.2,0.,1.2,0.,1.2,,0.0,,0.0
1979-03-04 15:18:11.140 ,0,0,0.,1.2,0.,1.2,0.,1.2,,0.0,,0.0
1979-03-04 15:18:12.340 ,0,0,0.,1.2,0.,1.2,0.,1.2,,0.0,,0.0
1979-03-04 15:18:13.540 ,0,0,0.,1.2,0.,1.2,0.,1.2,,0.0,,0.0
1979-03-04 15:18:14.740 ,0,0,0.,1.2,0.,1.2,0.,1.2,,0.0,,0.0
1979-03-04 15:18:15.940 ,0,0,0.,1.2,0.,1.2,0.,1.2,,0.0,,0.0
1979-03-04 15:18:17.140 ,0,0,0.,1.2,0.,1.2,0.,1.2,,0.0,,0.0
1979-03-04 15:18:18.340 ,0,0,0.,1.2,0.,1.2,0.,1.2,,0.0,,0.0
1979-03-04 15:18:19.540 ,0,0,0.,1.2,0.,1.2,0.,1.2,,0.0,,0.0
1979-03-04 15:18:20.740 ,0,0,0.,1.2,0.,1.2,0.,1.2,,0.0,,0.0
1979-03-04 15:18:21.940 ,0,0,0.,1.2,0.,1.2,0.,1.2,,0.0,,0.0
1979-03-04 15:18:23.140 ,0,0,0.,1.2,0.,1.2,0.,1.2,,0.0,,0.0
1979-03-04 15:18:24.340 ,0,0,0.,1.2,0.,1.2,0.,1.2,,0.0,,0.0
1979-03-04 15:18:25.540 ,0,0,0.,1.2,0.,1.2,0.,1.2,,0.0,,0.0
1979-03-04 15:18:26.740 ,0,0,0.,1.2,0.,1.2,0.,1.2,,0.0,,0.0
1979-03-04 15:18:27.940 ,0,0,0.,1.2,0.,1.2,0.,1.2,,0.0,,0.0
1979-03-04 15:18:29.140 ,0,0,0.,1.2,0.,1.2,0.,1.2,,0.0,,0.0
1979-03-04 15:18:30.340 ,0,0,0.,1.2,0.,1.2,0.,1.2,,0.0,,0.0
1979-03-04 15:18:31.540 ,0,0,0.,1.2,0.,1.2,0.,1.2,,0.0,,0.0
1979-03-04 15:18:32.740 ,0,0,0.,1.2,0.,1.2,0.,1.2,,0.0,,0.0
1979-03-04 15:18:33.940 ,0,0,0.,1.2,0.,1.2,0.,1.2,,0.0,,0.0
1979-03-04 15:18:35.140 ,0,0,0.,1.2,0.,1.2,0.,1.2,,0.0,,0.0
1979-03-04 15:18:36.340 ,1,0,0.,1.2,0.,1.2,0.,1.2,,0.0,,0.0
1979-03-04 15:18:37.540 ,1,0,0.,1.2,0.,1.2,0.,1.2,,0.0,,0.0
1979-03-04 15:18:38.740 ,1,0,0.,1.2,0.,1.2,0.,1.2,,0.0,,0.0
1979-03-04 15:18:39.940 ,1,0,0.,1.2,0.,1.2,0.,1.2,,0.0,,0.0
1979-03-04 15:18:41.140 ,1,0,0.,1.2,0.,1.2,0.,1.2,,0.0,,0.0
1979-03-04 15:18:42.340 ,1,0,0.,1.2,0.,1.2,0.,1.2,,0.0,,0.0
1979-03-04 15:18:43.540 ,1,0,0.,1.2,0.,1.2,0.,1.2,,0.0,,0.0
1979-03-04 15:18:44.740 ,1,0,0.,1.2,0.,1.2,0.,1.2,,0.0,,0.0
1979-03-04 15:18:45.940 ,1,0,0.,1.2,0.,1.2,0.,1.2,,0.0,,0.0
1979-03-04 15:18:47.140 ,1,0,0.,1.2,0.,1.2,0.,1.2,,0.0,,0.0
1979-03-04 15:18:48.340 ,1,0,0.,1.2,0.,1.2,0.,1.2,,0.0,,0.0
1979-03-04 15:18:49.540 ,1,0,0.,1.2,0.,1.2,0.,1.2,,0.0,,0.0
1979-03-04 15:18:50.740 ,1,0,0.,1.2,0.,1.2,0.,1.2,,0.0,,0.0
1979-03-04 15:18:51.940 ,1,0,0.,1.2,0.,1.2,0.,1.2,,0.0,,0.0
1979-03-04 15:18:53.140 ,1,0,0.,1.2,0.,1.2,0.,1.2,,0.0,,0.0
1979-03-04 15:18:54.340 ,1,0,0.,1.2,0.,1.2,0.,1.2,,0.0,,0.0
1979-03-04 15:18:55.540 ,1,0,0.,1.2,0.,1.2,0.,1.2,,0.0,,0.0
1979-03-04 15:18:56.740 ,1,0,0.,1.2,0.,1.2,0.,1.2,,0.0,,0.0
1979-03-04 15:18:57.940 ,1,0,0.,1.2,0.,1.2,0.,1.2,,0.0,,0.0
1979-03-04 15:18:59.140 ,1,0,0.,1.2,0.,1.2,0.,1.2,,0.0,,0.0
1979-03-04 15:19:00.340 ,2,0,0.,1.2,0.,1.2,0.,1.2,,0.0,,0.0
1979-03-04 15:19:01.540 ,2,0,0.,1.2,0.,1.2,0.,1.2,,0.0,,0.0
1979-03-04 15:19:02.740 ,2,0,0.,1.2,0.,1.2,0.,1.2,,0.0,,0.0
1979-03-04 15:19:03.940 ,2,0,0.,1.2,0.,1.2,0.,1.2,,0.0,,0.0
1979-03-04 15:19:05.140 ,2,0,0.,1.2,0.,1.2,0.,1.2,,0.0,,0.0
1979-03-04 15:19:06.340 ,2,0,0.,1.2,0.,1.2,0.,1.2,,0.0,,0.0
1979-03-04 15:19:07.540 ,2,0,0.,1.2,0.,1.2,0.,1.2,,0.0,,0.0
1979-03-04 15:19:08.740 ,2,0,0.,1.2,0.,1.2,0.,1.2,,0.0,,0.0
1979-03-04 15:19:09.940 ,2,0,0.,1.2,0.,1.2,0.,1.2,,0.0,,0.0
1979-03-04 15:19:11.140 ,2,0,0.,1.2,0.,1.2,0.,1.2,,0.0,,0.0
1979-03-04 15:19:12.340 ,2,0,0.,1.2,0.,1.2,0.,1.2,,0.0,,0.0
1979-03-04 15:19:13.540 ,2,0,0.,1.2,0.,1.2,0.,1.2,,0.0,,0.0
1979-03-04 15:19:14.740 ,2,0,0.,1.2,0.,1.2,0.,1.2,,0.0,,0.0
1979-03-04 15:19:15.940 ,2,0,0.,1.2,0.,1.2,0.,1.2,,0.0,,0.0
1979-03-04 15:19:17.140 ,2,0,0.,1.2,0.,1.2,0.,1.2,,0.0,,0.0
1979-03-04 15:19:18.340 ,2,0,0.,1.2,0.,1.2,0.,1.2,,0.0,,0.0
1979-03-04 15:19:19.540 ,2,0,0.,1.2,0.,1.2,0.,1.2,,0.0,,0.0
1979-03-04 15:19:20.740 ,2,0,0.,1.2,0.,1.2,0.,1.2,,0.0,,0.0
1979-03-04 15:19:21.940 ,2,0,0.,1.2,0.,1.2,0.,1.2,,0.0,,0.0
1979-03-04 15:19:23.140 ,2,0,0.,1.2,0.,1.2,0.,1.2,,0.0,,0.0
1979-03-04 15:19:24.340 ,3,0,0.,1.2,0.,1.2,0.,1.2,,0.0,,0.0
1979-03-04 15:19:25.540 ,3,0,0.,1.2,0.,1.2,0.,1.2,,0.0,,0.0
1979-03-04 15:19:26.740 ,3,0,0.,1.2,0.,1.2,0.,1.2,,0.0,,0.0
1979-03-04 15:19:27.940 ,3,0,0.,1.2,0.,1.2,0.,1.2,,0.0,,0.0
1979-03-04 15:19:29.140 ,3,0,0.,1.2,0.,1.2,0.,1.2,,0.0,,0.0
1979-03-04 15:19:30.340 ,3,0,0.,1.2,0.,1.2,0.,1.2,,0.0,,0.0
1979-03-04 15:19:31.540 ,3,0,0.,1.2,0.,1.2,0.,1.2,,0.0,,0.0
1979-03-04 15:19:32.740 ,3,0,0.,1.2,0.,1.2,0.,1.2,,0.0,,0.0
1979-03-04 15:19:33.940 ,3,0,0.,1.2,0.,1.2,0.,1.2,,0.0,,0.0
1979-03-04 15:19:35.140 ,3,0,0.,1.2,0.,1.2,0.,1.2,,0.0,,0.0
1979-03-04 15:19:36.340 ,3,0,0.,1.2,0.,1.2,0.,1.2,,0.0,,0.0
1979-03-04 15:19:37.540 ,3,0,0.,1.2,0.,1.2,0.,1.2,,0.0,,0.0
1979-03-04 15:19:38.740 ,3,0,0.,1.2,0.,1.2,0.,1.2,,0.0,,0.0
1979-03-04 15:19:39.940 ,3,0,0.,1.2,0.,1.2,0.,1.2,,0.0,,0.0
1979-03-04 15:19:41.140 ,3,0,0.,1.2,0.,1.2,0.,1.2,,0.0,,0.0
1979-03-04 15:19:42.340 ,3,0,0.,1.2,0.,1.2,0.,1.2,,0.0,,0.0
1979-03-04 15:19:43.540 ,3,0,0.,1.2,0.,1.2,0.,1.2,,0.0,,0.0
1979-03-04 15:19:44.740 ,3,0,0.,1.2,0.,1.2,0.,1.2,,0.0,,0.0
1979-03-04 15:19:45.940 ,3,0,0.,1.2,0.,1.2,0.,1.2,,0.0,,0.0
1979-03-04 15:19:47.140 ,3,0,0.,1.2,0.,1.2,0.,1.2,,0.0,,0.0
1979-03-04 15:19:48.340 ,4,0,0.,1.2,0.,1.2,0.,1.2,,0.0,,0.0
1979-03-04 15:19:49.540 ,4,0,0.,1.2,0.,1.2,0.,1.2,,0.0,,0.0
1979-03-04 15:19:50.740 ,4,0,0.,1.2,0.,1.2,0.,1.2,,0.0,,0.0
1979-03-04 15:19:51.940 ,4,0,0.,1.2,0.,1.2,0.,1.2,,0.0,,0.0
1979-03-04 15:19:53.140 ,4,0,0.,1.2,0.,1.2,0.,1.2,,0.0,,0.0
1979-03-04 15:19:54.340 ,4,0,0.,1.2,0.,1.2,0.,1.2,,0.0,,0.0
1979-03-04 15:19:55.540 ,4,0,0.,1.2,0.,1.2,0.,1.2,,0.0,,0.0
1979-03-04 15:19:56.740 ,4,0,0.,1.2,0.,1.2,0.,1.2,,0.0,,0.0
1979-03-04 15:19:57.940 ,4,0,0.,1.2,0.,1.2,0.,1.2,,0.0,,0.0
1979-03-04 15:19:59.140 ,4,0,0.,1.2,0.,1.2,0.,1.2,,0.0,,0.0
1979-03-04 15:20:00.340 ,4,0,0.,1.2,0.,1.2,0.,1.2,,0.0,,0.0
1979-03-04 15:20:01.540 ,4,0,0.,1.2,0.,1.2,0.,1.2,,0.0,,0.0
1979-03-04 15:20:02.740 ,4,0,0.,1.2,0.,1.2,0.,1.2,,0.0,,0.0
1979-03-04 15:20:03.940 ,4,0,0.,1.2,0.,1.2,0.,1.2,,0.0,,0.0
1979-03-04 15:20:05.140 ,4,0,0.,1.2,0.,1.2,0.,1.2,,0.0,,0.0
1979-03-04 15:20:06.340 ,4,0,0.,1.2,0.,1.2,0.,1.2,,0.0,,0.0
1979-03-04 15:20:07.540 ,4,0,0.,1.2,0.,1.2,0.,1.2,,0.0,,0.0
1979-03-04 15:20:08.740 ,4,0,0.,1.2,0.,1.2,0.,1.2,,0.0,,0.0
1979-03-04 15:20:09.940 ,4,0,0.,1.2,0.,1.2,0.,1.2,,0.0,,0.0
1979-03-04 15:20:11.140 ,4,0,0.,1.2,0.,1.2,0.,1.2,,0.0,,0.0
1979-03-04 15:20:12.340 ,5,0,0.,1.2,0.,1.2,0.,1.2,,0.0,,0.0
1979-03-04 15:20:13.540 ,5,0,0.,1.2,0.,1.2,0.,1.2,,0.0,,0.0
1979-03-04 15:20:14.740 ,5,0,0.,1.2,0.,1.2,0.,1.2,,0.0,,0.0
1979-03-04 15:20:15.940 ,5,0,0.,1.2,0.,1.2,0.,1.2,,0.0,,0.0
1979-03-04 15:20:17.140 ,5,0,0.,1.2,0.,1.2,0.,1.2,,0.0,,0.0
1979-03-04 15:20:18.340 ,5,0,0.,1.2,0.,1.2,0.,1.2,,0.0,,0.0
1979-03-04 15:20:19.540 ,5,0,0.,1.2,0.,1.2,0.,1.2,,0.0,,0.0
1979-03-04 15:20:20.740 ,5,0,0.,1.2,0.,1.2,0.,1.2,,0.0,,0.0
1979-03-04 15:20:21.940 ,5,0,0.,1.2,0.,1.2,0.,1.2,,0.0,,0.0
1979-03-04 15:20:23.140 ,5,0,0.,1.2,0.,1.2,0.,1.2,,0.0,,0.0
1979-03-04 15:20:24.340 ,5,0,0.,1.2,0.,1.2,0.,1.2,,0.0,,0.0
1979-03-04 15:20:25.540 ,5,0,0.,1.2,0.,1.2,0.,1.2,,0.0,,0.0
1979-03-04 15:20:26.740 ,5,0,0.,1.2,0.,1.2,0.,1.2,,0.0,,0.0
1979-03-04 15:20:27.940 ,5,0,0.,1.2,0.,1.2,0.,1.2,,0.0,,0.0
1979-03-04 15:20:29.140 ,5,0,0.,1.2,0.,1.2,0.,1.2,,0.0,,0.0
1979-03-04 15:20:30.340 ,5,0,0.,1.2,0.,1.2,0.,1.2,,0.0,,0.0
1979-03-04 15:20:31.540 ,5,0,0.,1.2,0.,1.2,0.,1.2,,0.0,,0.0
1979-03-04 15:20:32.740 ,5,0,0.,1.2,0.,1.2,0.,1.2,,0.0,,0.0
1979-03-04 15:20:33.940 ,5,0,0.,1.2,0.,1.2,0.,1.2,,0.0,,0.0
1979-03-04 15:20:35.140 ,5,0,0.,1.2,0.,1.2,0.,1.2,,0.0,,0.0
1979-03-04 15:20:36.340 ,6,0,0.,1.2,0.,1.2,0.,1.2,,0.0,,0.0
1979-03-04 15:20:37.540 ,6,0,0.,1.2,0.,1.2,0.,1.2,,0.0,,0.0
1979-03-04 15:20:38.740 ,6,0,0.,1.2,0.,1.2,0.,1.2,,0.0,,0.0
1979-03-04 15:20:39.940 ,6,0,0.,1.2,0.,1.2,0.,1.2,,0.0,,0.0
1979-03-04 15:20:41.140 ,6,0,0.,1.2,0.,1.2,0.,1.2,,0.0,,0.0
1979-03-04 15:20:42.340 ,6,0,0.,1.2,0.,1.2,0.,1.2,,0.0,,0.0
1979-03-04 15:20:43.540 ,6,0,0.,1.2,0.,1.2,0.,1.2,,0.0,,0.0
1979-03-04 15:20:44.740 ,6,0,0.,1.2,0.,1.2,0.,1.2,,0.0,,0.0
1979-03-04 15:20:45.940 ,6,0,0.,1.2,0.,1.2,0.,1.2,,0.0,,0.0
1979-03-04 15:20:47.140 ,6,0,0.,1.2,0.,1.2,0.,1.2,,0.0,,0.0
1979-03-04 15:20:48.340 ,6,0,0.,1.2,0.,1.2,0.,1.2,,0.0,,0.0
1979-03-04 15:20:49.540 ,6,0,0.,1.2,0.,1.2,0.,1.2,,0.0,,0.0
1979-03-04 15:20:50.740 ,6,0,0.,1.2,0.,1.2,0.,1.2,,0.0,,0.0
1979-03-04 15:20:51.940 ,6,0,0.,1.2,0.,1.2,0.,1.2,,0.0,,0.0
1979-03-04 15:20:53.140 ,6,0,0.,1.2,0.,1.2,0.,1.2,,0.0,,0.0
1979-03-04 15:20:54.340 ,6,0,0.,1.2,0.,1.2,0.,1.2,,0.0,,0.0
1979-03-04 15:20:55.540 ,6,0,0.,1.2,0.,1.2,0.,1.2,,0.0,,0.0
1979-03-04 15:20:56.740 ,6,0,0.,1.2,0.,1.2,0.,1.2,,0.0,,0.0
1979-03-04 15:20:57.940 ,6,0,0.,1.2,0.,1.2,0.,1.2,,0.0,,0.0
1979-03-04 15:20:59.140 ,6,0,0.,1.2,0.,1.2,0.,1.2,,0.0,,0.0
1979-03-04 15:21:00.340 ,7,0,0.,1.2,0.,1.2,0.,1.2,,0.0,,0.0
1979-03-04 15:21:01.540 ,7,0,0.,1.2,0.,1.2,0.,1.2,,0.0,,0.0
1979-03-04 15:21:02.740 ,7,0,0.,1.2,0.,1.2,0.,1.2,,0.0,,0.0
1979-03-04 15:21:03.940 ,7,0,0.,1.2,0.,1.2,0.,1.2,,0.0,,0.0
1979-03-04 15:21:05.140 ,7,0,0.,1.2,0.,1.2,0.,1.2,,0.0,,0.0
1979-03-04 15:21:06.340 ,7,0,0.,1.2,0.,1.2,0.,1.2,,0.0,,0.0
1979-03-04 15:21:07.540 ,7,0,0.,1.2,0.,1.2,0.,1.2,,0.0,,0.0
1979-03-04 15:21:08.740 ,7,0,0.,1.2,0.,1.2,0.,1.2,,0.0,,0.0
1979-03-04 15:21:09.940 ,7,0,0.,1.2,0.,1.2,0.,1.2,,0.0,,0.0
1979-03-04 15:21:11.140 ,7,0,0.,1.2,0.,1.2,0.,1.2,,0.0,,0.0
1979-03-04 15:21:12.340 ,7,0,0.,1.2,0.,1.2,0.,1.2,,0.0,,0.0
1979-03-04 15:21:13.540 ,7,0,0.,1.2,0.,1.2,0.,1.2,,0.0,,0.0